Caldwell, NJ

4:15 PM EST on December 12, 2019 (GMT -0500)
Essex County

Weather History for KCDW - November, 2019

Change the Weather History Date:

Thursday, November 14, 2019

  Actual Average Record
Temperature  
Mean Temperature 32 °F -  
Max Temperature 43 °F 49 °F 70 °F (1964)
Min Temperature 21 °F 32 °F 15 °F (1986)
Degree Days  
Heating Degree Days 33    
Moisture  
Dew Point 19 °F    
Average Humidity 59    
Maximum Humidity 82    
Minimum Humidity 38    
Precipitation  
Precipitation 0.00 in - - ()
Sea Level Pressure  
Sea Level Pressure 30.41 in    
Wind  
Wind Speed 1 mph ()    
Max Wind Speed 7 mph    
Max Gust Speed -    
Visibility 10.0 miles    
Events      
Averages and records for this station are not official NWS values.
T = Trace of Precipitation, MM = Missing Value Source: Averaged Metar Reports

Daily Weather History Graph

Daily Weather History Graph

Search for Another Location

Airport or City:

Astronomy

Nov. 14, 2019 Rise Set
Actual Time 6:42 AM EST 4:39 PM EST
Civil Twilight 6:13 AM EST 5:09 PM EST
Nautical Twilight 5:40 AM EST 5:42 PM EST
Astronomical Twilight 5:07 AM EST 6:14 PM EST
Moon 6:23 PM EST (11/14) 8:36 AM EST (11/14)
Length of Visible Light 10h 55m
Length of Day
9h 56m
Waning Gibbous, 95% of the Moon is Illuminated
Nov 14
Waning Gibbous
Nov 19
Last Quarter
Nov 26
New
Dec 4
First Quarter
Dec 12
Full

Hourly Weather History & Observations

Time (EST) Temp. Windchill Dew Point Humidity Pressure Visibility Wind Dir Wind Speed Gust Speed Precip Events Conditions
12:53 AM 24.1 °F - 14.0 °F 65% 30.47 in 10.0 mi Calm Calm - N/A   Clear
1:53 AM 24.1 °F - 15.1 °F 69% 30.48 in 10.0 mi Calm Calm - N/A   Clear
2:53 AM 23.0 °F - 15.1 °F 72% 30.46 in 10.0 mi Calm Calm - N/A   Clear
3:53 AM 21.9 °F - 15.1 °F 75% 30.45 in 10.0 mi Calm Calm - N/A   Clear
4:53 AM 21.9 °F - 16.0 °F 78% 30.46 in 10.0 mi Calm Calm - N/A   Clear
5:53 AM 21.9 °F - 16.0 °F 78% 30.46 in 10.0 mi Calm Calm - N/A   Clear
6:53 AM 21.9 °F - 17.1 °F 82% 30.48 in 10.0 mi Calm Calm - N/A   Clear
7:53 AM 24.1 °F - 18.0 °F 77% 30.49 in 10.0 mi Calm Calm - N/A   Clear
8:53 AM 28.0 °F - 17.1 °F 63% 30.50 in 10.0 mi Calm Calm - N/A   Clear
9:53 AM 30.9 °F - 17.1 °F 57% 30.48 in 10.0 mi Calm Calm - N/A   Overcast
10:53 AM 35.1 °F 32.2 °F 16.0 °F 46% 30.45 in 10.0 mi Variable 3.5 mph - N/A   Clear
11:53 AM 37.0 °F 33.3 °F 16.0 °F 42% 30.42 in 10.0 mi WSW 4.6 mph - N/A   Clear
12:53 PM 42.1 °F 37.7 °F 19.9 °F 41% 30.39 in 10.0 mi Variable 6.9 mph - N/A   Clear
1:53 PM 43.0 °F 38.8 °F 19.0 °F 38% 30.37 in 10.0 mi Variable 6.9 mph - N/A   Clear
2:53 PM 43.0 °F 41.3 °F 19.9 °F 40% 30.36 in 10.0 mi Variable 3.5 mph - N/A   Clear
3:53 PM 43.0 °F - 21.0 °F 42% 30.35 in 10.0 mi Calm Calm - N/A   Clear
4:53 PM 39.9 °F - 21.9 °F 49% 30.35 in 10.0 mi Calm Calm - N/A   Clear
5:53 PM 39.0 °F 36.8 °F 23.0 °F 53% 30.34 in 10.0 mi SSW 3.5 mph - N/A   Clear
6:53 PM 39.9 °F - 23.0 °F 51% 30.33 in 10.0 mi Calm Calm - N/A   Clear
7:53 PM 37.9 °F - 25.0 °F 60% 30.32 in 10.0 mi Calm Calm - N/A   Partly Cloudy
8:53 PM 37.9 °F - 25.0 °F 60% 30.33 in 10.0 mi Calm Calm - N/A   Clear
9:53 PM 37.9 °F - 23.0 °F 55% 30.33 in 10.0 mi Calm Calm - N/A   Mostly Cloudy
10:53 PM 37.9 °F - 23.0 °F 55% 30.33 in 10.0 mi Calm Calm - N/A   Clear
11:53 PM 37.0 °F - 23.0 °F 57% 30.32 in 10.0 mi Calm Calm - N/A   Clear